date,time,SUV Intensity [MED/Hr],UV Index,Daily total [MED],Since Last [MED]
19/03/2022,00:05:55,0.000,0.0,0.0,0.0
19/03/2022,00:06:55,0.000,0.0,0.0,0.0
19/03/2022,00:07:55,0.000,0.0,0.0,0.0
19/03/2022,00:08:55,0.000,0.0,0.0,0.0
19/03/2022,00:09:54,-0.001,0.0,0.0,0.0
19/03/2022,00:10:55,0.000,0.0,0.0,0.0
19/03/2022,00:11:55,0.000,0.0,0.0,0.0
19/03/2022,00:13:03,0.000,0.0,0.0,0.0
19/03/2022,00:13:55,0.000,0.0,0.0,0.0
19/03/2022,00:14:55,0.000,0.0,0.0,0.0
19/03/2022,00:16:03,0.000,0.0,0.0,0.0
19/03/2022,00:16:55,0.000,0.0,0.0,0.0
19/03/2022,00:17:56,0.000,0.0,0.0,0.0
19/03/2022,00:18:55,0.000,0.0,0.0,0.0
19/03/2022,00:19:55,0.000,0.0,0.0,0.0
19/03/2022,00:20:55,0.000,0.0,0.0,0.0
19/03/2022,00:21:55,0.000,0.0,0.0,0.0
19/03/2022,00:23:03,0.000,0.0,0.0,0.0
19/03/2022,00:23:55,0.001,0.0,0.0,0.0
19/03/2022,00:24:55,0.000,0.0,0.0,0.0
19/03/2022,00:26:03,-0.000,0.0,0.0,0.0
19/03/2022,00:26:55,0.000,0.0,0.0,0.0
19/03/2022,00:27:55,0.000,0.0,0.0,0.0
19/03/2022,00:29:04,0.000,0.0,0.0,0.0
19/03/2022,00:29:55,0.000,0.0,0.0,0.0
19/03/2022,00:30:55,0.000,0.0,0.0,0.0
19/03/2022,00:31:55,0.000,0.0,0.0,0.0
19/03/2022,00:32:55,0.000,0.0,0.0,0.0
19/03/2022,00:33:55,0.000,0.0,0.0,0.0
19/03/2022,00:34:55,0.001,0.0,0.0,0.0
19/03/2022,00:35:55,0.000,0.0,0.0,0.0
19/03/2022,00:36:55,0.000,0.0,0.0,0.0
19/03/2022,00:37:54,0.000,0.0,0.0,0.0
19/03/2022,00:38:55,0.000,0.0,0.0,0.0
19/03/2022,00:39:55,0.000,0.0,0.0,0.0
19/03/2022,00:40:55,0.000,0.0,0.0,0.0
19/03/2022,00:41:55,0.000,0.0,0.0,0.0
19/03/2022,00:42:55,0.000,0.0,0.0,0.0
19/03/2022,00:43:55,0.000,0.0,0.0,0.0
19/03/2022,00:44:55,0.001,0.0,0.0,0.0
19/03/2022,00:45:55,0.000,0.0,0.0,0.0
19/03/2022,00:46:55,0.000,0.0,0.0,0.0
19/03/2022,00:47:55,0.001,0.0,0.0,0.0
19/03/2022,00:48:55,0.001,0.0,0.0,0.0
19/03/2022,00:49:55,0.001,0.0,0.0,0.0
19/03/2022,00:50:55,0.001,0.0,0.0,0.0
19/03/2022,00:51:55,0.000,0.0,0.0,0.0
19/03/2022,00:53:03,0.000,0.0,0.0,0.0
19/03/2022,00:53:55,0.000,0.0,0.0,0.0
19/03/2022,00:54:55,0.000,0.0,0.0,0.0
19/03/2022,00:55:55,0.000,0.0,0.0,0.0
19/03/2022,00:56:55,0.001,0.0,0.0,0.0
19/03/2022,00:57:55,0.001,0.0,0.0,0.0
19/03/2022,00:58:55,0.001,0.0,0.0,0.0
19/03/2022,00:59:56,0.001,0.0,0.0,0.0
19/03/2022,01:00:55,0.001,0.0,0.0,0.0
19/03/2022,01:01:55,0.000,0.0,0.0,0.0
19/03/2022,01:02:56,0.001,0.0,0.0,0.0
19/03/2022,01:03:55,0.001,0.0,0.0,0.0
19/03/2022,01:04:55,0.000,0.0,0.0,0.0
19/03/2022,01:06:04,0.001,0.0,0.0,0.0
19/03/2022,01:06:55,0.001,0.0,0.0,0.0
19/03/2022,01:07:55,0.001,0.0,0.0,0.0
19/03/2022,01:09:03,0.000,0.0,0.0,0.0
19/03/2022,01:09:55,0.000,0.0,0.0,0.0
19/03/2022,01:10:55,0.001,0.0,0.0,0.0
19/03/2022,01:12:47,0.000,0.0,0.0,0.0
19/03/2022,01:13:55,0.001,0.0,0.0,0.0
19/03/2022,01:14:55,0.000,0.0,0.0,0.0
19/03/2022,01:16:03,0.001,0.0,0.0,0.0
19/03/2022,01:16:55,0.000,0.0,0.0,0.0
19/03/2022,01:17:55,0.000,0.0,0.0,0.0
19/03/2022,01:19:03,0.001,0.0,0.0,0.0
19/03/2022,01:19:55,0.001,0.0,0.0,0.0
19/03/2022,01:20:55,0.000,0.0,0.0,0.0
19/03/2022,01:21:55,0.000,0.0,0.0,0.0
19/03/2022,01:22:55,0.000,0.0,0.0,0.0
19/03/2022,01:23:55,0.000,0.0,0.0,0.0
19/03/2022,01:24:55,0.000,0.0,0.0,0.0
19/03/2022,01:25:55,0.000,0.0,0.0,0.0
19/03/2022,01:26:55,0.000,0.0,0.0,0.0
19/03/2022,01:27:55,0.000,0.0,0.0,0.0
19/03/2022,01:29:03,0.000,0.0,0.0,0.0
19/03/2022,01:29:55,0.000,0.0,0.0,0.0
19/03/2022,01:30:55,0.000,0.0,0.0,0.0
19/03/2022,01:31:55,0.000,0.0,0.0,0.0
19/03/2022,01:32:56,0.000,0.0,0.0,0.0
19/03/2022,01:33:55,-0.001,0.0,0.0,0.0
19/03/2022,01:34:56,0.000,0.0,0.0,0.0
19/03/2022,01:35:55,0.000,0.0,0.0,0.0
19/03/2022,01:36:55,0.000,0.0,0.0,0.0
19/03/2022,01:37:55,0.000,0.0,0.0,0.0
19/03/2022,01:38:55,0.000,0.0,0.0,0.0
19/03/2022,01:39:55,0.001,0.0,0.0,0.0
19/03/2022,01:40:55,0.000,0.0,0.0,0.0
19/03/2022,01:41:55,0.000,0.0,0.0,0.0
19/03/2022,01:42:55,0.000,0.0,0.0,0.0
19/03/2022,01:43:55,0.000,0.0,0.0,0.0
19/03/2022,01:45:03,0.000,0.0,0.0,0.0
19/03/2022,01:46:03,0.000,0.0,0.0,0.0
19/03/2022,01:46:55,0.000,0.0,0.0,0.0
19/03/2022,01:47:57,0.000,0.0,0.0,0.0
19/03/2022,01:48:55,0.000,0.0,0.0,0.0
19/03/2022,01:49:55,0.000,0.0,0.0,0.0
19/03/2022,01:50:55,0.000,0.0,0.0,0.0
19/03/2022,01:51:55,0.000,0.0,0.0,0.0
19/03/2022,01:52:55,0.000,0.0,0.0,0.0
19/03/2022,01:53:55,0.000,0.0,0.0,0.0
19/03/2022,01:55:03,0.000,0.0,0.0,0.0
19/03/2022,01:56:03,0.000,0.0,0.0,0.0
19/03/2022,01:56:55,0.000,0.0,0.0,0.0
19/03/2022,01:57:55,0.000,0.0,0.0,0.0
19/03/2022,01:58:55,0.000,0.0,0.0,0.0
19/03/2022,01:59:56,0.000,0.0,0.0,0.0
19/03/2022,02:00:55,0.000,0.0,0.0,0.0
19/03/2022,02:01:55,0.000,0.0,0.0,0.0
19/03/2022,02:02:55,0.000,0.0,0.0,0.0
19/03/2022,02:03:55,0.000,0.0,0.0,0.0
19/03/2022,02:04:56,0.000,0.0,0.0,0.0
19/03/2022,02:05:55,0.001,0.0,0.0,0.0
19/03/2022,02:06:55,0.001,0.0,0.0,0.0
19/03/2022,02:07:55,0.001,0.0,0.0,0.0
19/03/2022,02:09:03,0.001,0.0,0.0,0.0
19/03/2022,02:09:55,0.000,0.0,0.0,0.0
19/03/2022,02:10:55,0.001,0.0,0.0,0.0
19/03/2022,02:11:55,0.001,0.0,0.0,0.0
19/03/2022,02:12:56,0.001,0.0,0.0,0.0
19/03/2022,02:13:55,0.001,0.0,0.0,0.0
19/03/2022,02:14:55,0.001,0.0,0.0,0.0
19/03/2022,02:15:55,0.002,0.0,0.0,0.0
19/03/2022,02:16:56,0.000,0.0,0.0,0.0
19/03/2022,02:17:55,0.001,0.0,0.0,0.0
19/03/2022,02:19:03,0.001,0.0,0.0,0.0
19/03/2022,02:19:54,0.001,0.0,0.0,0.0
19/03/2022,02:20:55,0.001,0.0,0.0,0.0
19/03/2022,02:22:04,0.001,0.0,0.0,0.0
19/03/2022,02:22:55,0.000,0.0,0.0,0.0
19/03/2022,02:23:55,0.001,0.0,0.0,0.0
19/03/2022,02:24:55,0.002,0.0,0.0,0.0
19/03/2022,02:25:55,0.001,0.0,0.0,0.0
19/03/2022,02:26:55,0.000,0.0,0.0,0.0
19/03/2022,02:27:55,0.001,0.0,0.0,0.0
19/03/2022,02:29:04,0.000,0.0,0.0,0.0
19/03/2022,02:29:54,0.001,0.0,0.0,0.0
19/03/2022,02:30:55,0.001,0.0,0.0,0.0
19/03/2022,02:32:04,0.001,0.0,0.0,0.0
19/03/2022,02:32:55,0.001,0.0,0.0,0.0
19/03/2022,02:33:56,0.001,0.0,0.0,0.0
19/03/2022,02:34:55,0.001,0.0,0.0,0.0
19/03/2022,02:35:55,0.001,0.0,0.0,0.0
19/03/2022,02:36:55,0.001,0.0,0.0,0.0
19/03/2022,02:37:56,0.000,0.0,0.0,0.0
19/03/2022,02:38:55,0.001,0.0,0.0,0.0
19/03/2022,02:39:55,0.000,0.0,0.0,0.0
19/03/2022,02:40:56,0.001,0.0,0.0,0.0
19/03/2022,02:41:55,0.001,0.0,0.0,0.0
19/03/2022,02:42:55,0.000,0.0,0.0,0.0
19/03/2022,02:44:03,0.000,0.0,0.0,0.0
19/03/2022,02:45:03,0.001,0.0,0.0,0.0
19/03/2022,02:45:55,0.000,0.0,0.0,0.0
19/03/2022,02:46:55,0.001,0.0,0.0,0.0
19/03/2022,02:47:55,0.001,0.0,0.0,0.0
19/03/2022,02:48:56,0.000,0.0,0.0,0.0
19/03/2022,02:49:56,0.000,0.0,0.0,0.0
19/03/2022,02:50:55,0.000,0.0,0.0,0.0
19/03/2022,02:51:55,0.001,0.0,0.0,0.0
19/03/2022,02:52:55,0.001,0.0,0.0,0.0
19/03/2022,02:53:55,0.001,0.0,0.0,0.0
19/03/2022,02:54:55,0.000,0.0,0.0,0.0
19/03/2022,02:55:55,0.001,0.0,0.0,0.0
19/03/2022,02:56:55,0.000,0.0,0.0,0.0
19/03/2022,02:57:55,0.001,0.0,0.0,0.0
19/03/2022,02:58:55,0.000,0.0,0.0,0.0
19/03/2022,02:59:55,0.000,0.0,0.0,0.0
19/03/2022,03:00:55,0.001,0.0,0.0,0.0
19/03/2022,03:01:55,0.001,0.0,0.0,0.0
19/03/2022,03:02:55,0.001,0.0,0.0,0.0
19/03/2022,03:03:56,0.001,0.0,0.0,0.0
19/03/2022,03:04:55,0.002,0.0,0.0,0.0
19/03/2022,03:05:55,0.001,0.0,0.0,0.0
19/03/2022,03:06:55,0.001,0.0,0.0,0.0
19/03/2022,03:07:55,0.001,0.0,0.0,0.0
19/03/2022,03:08:55,0.001,0.0,0.0,0.0
19/03/2022,03:09:55,0.002,0.0,0.0,0.0
19/03/2022,03:10:56,0.002,0.0,0.0,0.0
19/03/2022,03:11:56,0.001,0.0,0.0,0.0
19/03/2022,03:12:55,0.000,0.0,0.0,0.0
19/03/2022,03:13:55,0.001,0.0,0.0,0.0
19/03/2022,03:14:55,0.000,0.0,0.0,0.0
19/03/2022,03:15:56,0.001,0.0,0.0,0.0
19/03/2022,03:16:56,0.001,0.0,0.0,0.0
19/03/2022,03:17:56,0.002,0.0,0.0,0.0
19/03/2022,03:19:04,0.001,0.0,0.0,0.0
19/03/2022,03:19:56,0.002,0.0,0.0,0.0
19/03/2022,03:20:55,0.001,0.0,0.0,0.0
19/03/2022,03:22:03,0.001,0.0,0.0,0.0
19/03/2022,03:22:55,0.001,0.0,0.0,0.0
19/03/2022,03:23:55,0.001,0.0,0.0,0.0
19/03/2022,03:24:56,0.001,0.0,0.0,0.0
19/03/2022,03:25:56,0.001,0.0,0.0,0.0
19/03/2022,03:26:55,0.000,0.0,0.0,0.0
19/03/2022,03:27:55,0.001,0.0,0.0,0.0
19/03/2022,03:28:56,0.001,0.0,0.0,0.0
19/03/2022,03:29:56,0.001,0.0,0.0,0.0
19/03/2022,03:30:55,0.002,0.0,0.0,0.0
19/03/2022,03:32:03,0.001,0.0,0.0,0.0
19/03/2022,03:32:55,0.001,0.0,0.0,0.0
19/03/2022,03:33:55,0.002,0.0,0.0,0.0
19/03/2022,03:34:56,0.001,0.0,0.0,0.0
19/03/2022,03:35:56,0.001,0.0,0.0,0.0
19/03/2022,03:36:55,0.001,0.0,0.0,0.0
19/03/2022,03:37:55,0.001,0.0,0.0,0.0
19/03/2022,03:38:56,0.002,0.0,0.0,0.0
19/03/2022,03:40:12,0.001,0.0,0.0,0.0
19/03/2022,03:41:56,0.001,0.0,0.0,0.0
19/03/2022,03:42:56,0.001,0.0,0.0,0.0
19/03/2022,03:43:56,0.001,0.0,0.0,0.0
19/03/2022,03:44:56,0.002,0.0,0.0,0.0
19/03/2022,03:46:04,0.002,0.0,0.0,0.0
19/03/2022,03:46:55,0.001,0.0,0.0,0.0
19/03/2022,03:47:55,0.001,0.0,0.0,0.0
19/03/2022,03:48:55,0.001,0.0,0.0,0.0
19/03/2022,03:49:55,0.001,0.0,0.0,0.0
19/03/2022,03:50:55,0.002,0.0,0.0,0.0
19/03/2022,03:51:55,0.001,0.0,0.0,0.0
19/03/2022,03:52:56,0.001,0.0,0.0,0.0
19/03/2022,03:53:55,0.000,0.0,0.0,0.0
19/03/2022,03:54:55,0.000,0.0,0.0,0.0
19/03/2022,03:56:03,0.001,0.0,0.0,0.0
19/03/2022,03:56:55,0.001,0.0,0.0,0.0
19/03/2022,03:57:55,0.001,0.0,0.0,0.0
19/03/2022,03:59:04,0.001,0.0,0.0,0.0
19/03/2022,03:59:55,0.001,0.0,0.0,0.0
19/03/2022,04:00:55,0.001,0.0,0.0,0.0
19/03/2022,04:01:55,0.001,0.0,0.0,0.0
19/03/2022,04:02:55,0.002,0.0,0.0,0.0
19/03/2022,04:03:56,0.001,0.0,0.0,0.0
19/03/2022,04:04:55,0.001,0.0,0.0,0.0
19/03/2022,04:05:55,0.001,0.0,0.0,0.0
19/03/2022,04:06:56,0.001,0.0,0.0,0.0
19/03/2022,04:08:12,0.001,0.0,0.0,0.0
19/03/2022,04:09:56,0.002,0.0,0.0,0.0
19/03/2022,04:10:55,0.002,0.0,0.0,0.0
19/03/2022,04:11:56,0.001,0.0,0.0,0.0
19/03/2022,04:12:55,0.002,0.0,0.0,0.0
19/03/2022,04:13:55,0.001,0.0,0.0,0.0
19/03/2022,04:14:55,0.000,0.0,0.0,0.0
19/03/2022,04:15:56,0.001,0.0,0.0,0.0
19/03/2022,04:16:56,0.001,0.0,0.0,0.0
19/03/2022,04:17:55,0.001,0.0,0.0,0.0
19/03/2022,04:19:03,0.002,0.0,0.0,0.0
19/03/2022,04:19:55,0.000,0.0,0.0,0.0
19/03/2022,04:20:56,0.001,0.0,0.0,0.0
19/03/2022,04:21:55,0.002,0.0,0.0,0.0
19/03/2022,04:22:55,0.001,0.0,0.0,0.0
19/03/2022,04:23:55,0.002,0.0,0.0,0.0
19/03/2022,04:24:56,0.001,0.0,0.0,0.0
19/03/2022,04:25:55,0.002,0.0,0.0,0.0
19/03/2022,04:26:56,0.002,0.0,0.0,0.0
19/03/2022,04:27:55,0.001,0.0,0.0,0.0
19/03/2022,04:28:55,0.001,0.0,0.0,0.0
19/03/2022,04:29:56,0.002,0.0,0.0,0.0
19/03/2022,04:30:55,0.001,0.0,0.0,0.0
19/03/2022,04:31:55,0.001,0.0,0.0,0.0
19/03/2022,04:32:55,0.001,0.0,0.0,0.0
19/03/2022,04:33:56,0.001,0.0,0.0,0.0
19/03/2022,04:34:55,0.001,0.0,0.0,0.0
19/03/2022,04:35:55,0.001,0.0,0.0,0.0
19/03/2022,04:36:56,0.001,0.0,0.0,0.0
19/03/2022,04:37:55,0.002,0.0,0.0,0.0
19/03/2022,04:38:55,0.001,0.0,0.0,0.0
19/03/2022,04:39:55,0.002,0.0,0.0,0.0
19/03/2022,04:40:55,0.001,0.0,0.0,0.0
19/03/2022,04:41:56,0.001,0.0,0.0,0.0
19/03/2022,04:43:04,0.001,0.0,0.0,0.0
19/03/2022,04:43:55,0.001,0.0,0.0,0.0
19/03/2022,04:44:55,0.002,0.0,0.0,0.0
19/03/2022,04:45:56,0.000,0.0,0.0,0.0
19/03/2022,04:46:55,0.002,0.0,0.0,0.0
19/03/2022,04:47:56,0.001,0.0,0.0,0.0
19/03/2022,04:48:55,0.000,0.0,0.0,0.0
19/03/2022,04:49:57,0.002,0.0,0.0,0.0
19/03/2022,04:50:56,0.001,0.0,0.0,0.0
19/03/2022,04:51:55,0.000,0.0,0.0,0.0
19/03/2022,04:52:55,0.002,0.0,0.0,0.0
19/03/2022,04:53:56,0.001,0.0,0.0,0.0
19/03/2022,04:54:55,0.001,0.0,0.0,0.0
19/03/2022,04:55:55,0.001,0.0,0.0,0.0
19/03/2022,04:56:56,0.000,0.0,0.0,0.0
19/03/2022,04:57:55,0.001,0.0,0.0,0.0
19/03/2022,04:58:55,0.002,0.0,0.0,0.0
19/03/2022,05:00:04,0.001,0.0,0.0,0.0
19/03/2022,05:00:55,0.001,0.0,0.0,0.0
19/03/2022,05:01:56,0.001,0.0,0.0,0.0
19/03/2022,05:03:04,0.001,0.0,0.0,0.0
19/03/2022,05:03:56,0.001,0.0,0.0,0.0
19/03/2022,05:04:55,0.001,0.0,0.0,0.0
19/03/2022,05:05:55,0.001,0.0,0.0,0.0
19/03/2022,05:06:56,0.001,0.0,0.0,0.0
19/03/2022,05:07:55,0.001,0.0,0.0,0.0
19/03/2022,05:08:55,0.001,0.0,0.0,0.0
19/03/2022,05:09:56,0.001,0.0,0.0,0.0
19/03/2022,05:10:56,0.001,0.0,0.0,0.0
19/03/2022,05:11:56,0.001,0.0,0.0,0.0
19/03/2022,05:12:55,0.001,0.0,0.0,0.0
19/03/2022,05:13:56,0.001,0.0,0.0,0.0
19/03/2022,05:14:55,0.001,0.0,0.0,0.0
19/03/2022,05:15:55,0.002,0.0,0.0,0.0
19/03/2022,05:16:55,0.001,0.0,0.0,0.0
19/03/2022,05:17:56,0.001,0.0,0.0,0.0
19/03/2022,05:18:55,0.002,0.0,0.0,0.0
19/03/2022,05:20:03,0.001,0.0,0.0,0.0
19/03/2022,05:20:55,0.001,0.0,0.0,0.0
19/03/2022,05:21:56,0.000,0.0,0.0,0.0
19/03/2022,05:22:56,0.001,0.0,0.0,0.0
19/03/2022,05:23:55,0.001,0.0,0.0,0.0
19/03/2022,05:24:55,0.001,0.0,0.0,0.0
19/03/2022,05:25:55,0.001,0.0,0.0,0.0
19/03/2022,05:26:55,0.001,0.0,0.0,0.0
19/03/2022,05:27:56,0.001,0.0,0.0,0.0
19/03/2022,05:28:56,0.002,0.0,0.0,0.0
19/03/2022,05:29:55,0.001,0.0,0.0,0.0
19/03/2022,05:30:55,0.000,0.0,0.0,0.0
19/03/2022,05:31:56,0.001,0.0,0.0,0.0
19/03/2022,05:33:04,0.001,0.0,0.0,0.0
19/03/2022,05:33:55,0.002,0.0,0.0,0.0
19/03/2022,05:34:56,0.001,0.0,0.0,0.0
19/03/2022,05:35:56,0.001,0.0,0.0,0.0
19/03/2022,05:36:56,0.002,0.0,0.0,0.0
19/03/2022,05:37:56,0.001,0.0,0.0,0.0
19/03/2022,05:38:56,0.001,0.0,0.0,0.0
19/03/2022,05:39:56,0.001,0.0,0.0,0.0
19/03/2022,05:40:55,0.001,0.0,0.0,0.0
19/03/2022,05:41:55,-0.000,0.0,0.0,0.0
19/03/2022,05:42:55,0.001,0.0,0.0,0.0
19/03/2022,05:43:56,0.001,0.0,0.0,0.0
19/03/2022,05:44:56,0.001,0.0,0.0,0.0
19/03/2022,05:45:56,0.002,0.0,0.0,0.0
19/03/2022,05:46:55,0.001,0.0,0.0,0.0
19/03/2022,05:47:56,0.000,0.0,0.0,0.0
19/03/2022,05:48:55,0.001,0.0,0.0,0.0
19/03/2022,05:49:56,0.000,0.0,0.0,0.0
19/03/2022,05:51:04,0.001,0.0,0.0,0.0
19/03/2022,05:51:56,0.001,0.0,0.0,0.0
19/03/2022,05:52:55,0.001,0.0,0.0,0.0
19/03/2022,05:54:04,0.001,0.0,0.0,0.0
19/03/2022,05:54:56,0.001,0.0,0.0,0.0
19/03/2022,05:55:56,0.001,0.0,0.0,0.0
19/03/2022,05:56:55,0.001,0.0,0.0,0.0
19/03/2022,05:57:56,0.001,0.0,0.0,0.0
19/03/2022,05:58:56,0.001,0.0,0.0,0.0
19/03/2022,05:59:55,0.001,0.0,0.0,0.0
19/03/2022,06:00:56,0.001,0.0,0.0,0.0
19/03/2022,06:01:56,0.001,0.0,0.0,0.0
19/03/2022,06:02:55,0.001,0.0,0.0,0.0
19/03/2022,06:03:55,0.000,0.0,0.0,0.0
19/03/2022,06:04:56,0.001,0.0,0.0,0.0
19/03/2022,06:05:56,0.001,0.0,0.0,0.0
19/03/2022,06:06:55,0.001,0.0,0.0,0.0
19/03/2022,06:07:56,0.001,0.0,0.0,0.0
19/03/2022,06:08:55,0.002,0.0,0.0,0.0
19/03/2022,06:09:56,0.002,0.0,0.0,0.0
19/03/2022,06:10:56,0.002,0.0,0.0,0.0
19/03/2022,06:11:55,0.002,0.0,0.0,0.0
19/03/2022,06:12:55,0.002,0.0,0.0,0.0
19/03/2022,06:13:56,0.002,0.0,0.0,0.0
19/03/2022,06:14:55,0.002,0.0,0.0,0.0
19/03/2022,06:15:56,0.002,0.0,0.0,0.0
19/03/2022,06:16:56,0.004,0.0,0.0,0.0
19/03/2022,06:18:04,0.002,0.0,0.0,0.0
19/03/2022,06:18:56,0.003,0.0,0.0,0.0
19/03/2022,06:19:55,0.003,0.0,0.0,0.0
19/03/2022,06:20:55,0.003,0.0,0.0,0.0
19/03/2022,06:21:55,0.004,0.0,0.0,0.0
19/03/2022,06:22:56,0.004,0.0,0.0,0.0
19/03/2022,06:23:56,0.004,0.0,0.0,0.0
19/03/2022,06:24:57,0.005,0.0,0.0,0.0
19/03/2022,06:25:57,0.005,0.0,0.0,0.0
19/03/2022,06:26:56,0.004,0.0,0.0,0.0
19/03/2022,06:28:04,0.005,0.0,0.0,0.0
19/03/2022,06:28:55,0.006,0.0,0.0,0.0
19/03/2022,06:29:56,0.006,0.0,0.0,0.0
19/03/2022,06:30:55,0.006,0.0,0.0,0.0
19/03/2022,06:31:55,0.006,0.0,0.0,0.0
19/03/2022,06:32:56,0.007,0.0,0.0,0.0
19/03/2022,06:33:55,0.007,0.0,0.0,0.0
19/03/2022,06:34:55,0.007,0.0,0.0,0.0
19/03/2022,06:35:56,0.008,0.0,0.001,0.001
19/03/2022,06:36:55,0.008,0.0,0.001,0.0
19/03/2022,06:37:57,0.009,0.0,0.001,0.0
19/03/2022,06:38:55,0.010,0.0,0.001,0.0
19/03/2022,06:39:56,0.010,0.0,0.001,0.0
19/03/2022,06:40:56,0.010,0.0,0.001,0.0
19/03/2022,06:41:56,0.009,0.0,0.001,0.0
19/03/2022,06:42:55,0.011,0.0,0.002,0.001
19/03/2022,06:43:56,0.012,0.0,0.002,0.0
19/03/2022,06:44:56,0.011,0.0,0.002,0.0
19/03/2022,06:45:55,0.012,0.0,0.002,0.0
19/03/2022,06:46:56,0.012,0.0,0.002,0.0
19/03/2022,06:47:56,0.013,0.0,0.003,0.001
19/03/2022,06:48:55,0.014,0.0,0.003,0.0
19/03/2022,06:49:55,0.013,0.0,0.003,0.0
19/03/2022,06:50:56,0.015,0.0,0.003,0.0
19/03/2022,06:51:56,0.015,0.0,0.004,0.001
19/03/2022,06:52:56,0.017,0.0,0.004,0.0
19/03/2022,06:53:55,0.017,0.0,0.004,0.0
19/03/2022,06:54:56,0.017,0.0,0.004,0.0
19/03/2022,06:55:55,0.018,0.0,0.005,0.001
19/03/2022,06:57:56,0.019,0.0,0.005,0.0
19/03/2022,06:59:04,0.020,0.0,0.006,0.001
19/03/2022,06:59:55,0.021,0.0,0.006,0.0
19/03/2022,07:00:56,0.021,0.0,0.006,0.0
19/03/2022,07:01:56,0.023,0.0,0.007,0.001
19/03/2022,07:02:55,0.023,0.0,0.007,0.0
19/03/2022,07:03:56,0.024,0.0,0.007,0.0
19/03/2022,07:04:55,0.024,0.0,0.008,0.001
19/03/2022,07:05:55,0.025,0.0,0.008,0.0
19/03/2022,07:06:55,0.026,0.0,0.009,0.001
19/03/2022,07:07:56,0.026,0.0,0.009,0.0
19/03/2022,07:08:56,0.028,0.0,0.01,0.001
19/03/2022,07:09:56,0.029,0.0,0.01,0.0
19/03/2022,07:10:56,0.029,0.0,0.011,0.001
19/03/2022,07:11:56,0.031,0.0,0.011,0.0
19/03/2022,07:12:56,0.031,0.0,0.012,0.001
19/03/2022,07:13:55,0.033,0.0,0.012,0.0
19/03/2022,07:15:03,0.033,0.0,0.013,0.001
19/03/2022,07:15:55,0.034,0.0,0.013,0.0
19/03/2022,07:16:56,0.035,0.0,0.014,0.001
19/03/2022,07:17:55,0.036,0.0,0.014,0.0
19/03/2022,07:18:55,0.038,0.0,0.015,0.001
19/03/2022,07:19:56,0.038,0.0,0.016,0.001
19/03/2022,07:20:56,0.041,0.0,0.016,0.0
19/03/2022,07:21:53,0.041,0.0,0.017,0.001
19/03/2022,07:22:56,0.042,0.0,0.018,0.001
19/03/2022,07:23:56,0.044,0.0,0.018,0.0
19/03/2022,07:24:55,0.045,0.0,0.019,0.001
19/03/2022,07:25:56,0.046,0.0,0.02,0.001
19/03/2022,07:26:56,0.048,0.0,0.021,0.001
19/03/2022,07:27:56,0.048,0.0,0.021,0.0
19/03/2022,07:28:55,0.050,0.0,0.022,0.001
19/03/2022,07:29:56,0.051,0.0,0.023,0.001
19/03/2022,07:30:56,0.052,0.0,0.024,0.001
19/03/2022,07:31:56,0.054,0.0,0.025,0.001
19/03/2022,07:33:04,0.055,0.0,0.026,0.001
19/03/2022,07:33:55,0.057,0.0,0.027,0.001
19/03/2022,07:34:56,0.058,0.0,0.028,0.001
19/03/2022,07:35:56,0.059,0.0,0.029,0.001
19/03/2022,07:36:55,0.060,0.0,0.03,0.001
19/03/2022,07:37:55,0.063,0.0,0.031,0.001
19/03/2022,07:38:56,0.064,0.0,0.032,0.001
19/03/2022,07:39:56,0.067,0.0,0.033,0.001
19/03/2022,07:40:56,0.068,0.0,0.034,0.001
19/03/2022,07:41:56,0.068,0.0,0.035,0.001
19/03/2022,07:43:04,0.071,0.0,0.036,0.001
19/03/2022,07:43:56,0.073,0.0,0.037,0.001
19/03/2022,07:44:56,0.075,0.0,0.039,0.002
19/03/2022,07:45:55,0.076,0.0,0.04,0.001
19/03/2022,07:46:56,0.077,0.0,0.041,0.001
19/03/2022,07:47:55,0.080,0.0,0.042,0.001
19/03/2022,07:48:56,0.082,0.0,0.044,0.002
19/03/2022,07:49:56,0.083,0.0,0.045,0.001
19/03/2022,07:50:56,0.085,0.0,0.047,0.002
19/03/2022,07:51:56,0.087,0.0,0.048,0.001
19/03/2022,07:52:57,0.089,0.0,0.05,0.002
19/03/2022,07:53:56,0.092,0.0,0.051,0.001
19/03/2022,07:54:56,0.093,0.0,0.053,0.002
19/03/2022,07:55:56,0.096,0.0,0.054,0.001
19/03/2022,07:56:56,0.097,0.0,0.056,0.002
19/03/2022,07:57:55,0.098,0.0,0.057,0.001
19/03/2022,07:58:55,0.102,0.0,0.059,0.002
19/03/2022,07:59:55,0.104,0.0,0.061,0.002
19/03/2022,08:00:55,0.107,0.0,0.062,0.001
19/03/2022,08:01:57,0.109,0.0,0.064,0.002
19/03/2022,08:02:56,0.110,0.0,0.066,0.002
19/03/2022,08:03:56,0.113,0.0,0.068,0.002
19/03/2022,08:04:56,0.116,0.0,0.07,0.002
19/03/2022,08:05:56,0.117,0.0,0.072,0.002
19/03/2022,08:06:56,0.118,0.0,0.074,0.002
19/03/2022,08:07:56,0.122,0.0,0.076,0.002
19/03/2022,08:08:57,0.124,0.0,0.078,0.002
19/03/2022,08:09:55,0.127,0.0,0.08,0.002
19/03/2022,08:10:55,0.130,0.0,0.082,0.002
19/03/2022,08:11:58,0.132,0.0,0.084,0.002
19/03/2022,08:12:56,0.135,0.0,0.086,0.002
19/03/2022,08:13:56,0.137,0.0,0.089,0.003
19/03/2022,08:14:56,0.140,0.0,0.091,0.002
19/03/2022,08:15:56,0.143,0.0,0.093,0.002
19/03/2022,08:16:56,0.145,0.0,0.096,0.003
19/03/2022,08:17:56,0.148,0.0,0.098,0.002
19/03/2022,08:18:56,0.151,0.0,0.101,0.003
19/03/2022,08:20:04,0.154,0.0,0.104,0.003
19/03/2022,08:20:55,0.157,0.0,0.106,0.002
19/03/2022,08:21:56,0.159,0.0,0.109,0.003
19/03/2022,08:22:56,0.162,0.0,0.111,0.002
19/03/2022,08:23:56,0.165,0.0,0.114,0.003
19/03/2022,08:24:57,0.167,0.0,0.117,0.003
19/03/2022,08:25:56,0.170,0.0,0.12,0.003
19/03/2022,08:26:56,0.174,0.0,0.122,0.002
19/03/2022,08:27:56,0.177,0.0,0.125,0.003
19/03/2022,08:28:57,0.180,0.0,0.128,0.003
19/03/2022,08:30:04,0.183,0.0,0.132,0.004
19/03/2022,08:30:55,0.185,0.0,0.134,0.002
19/03/2022,08:31:56,0.189,0.0,0.138,0.004
19/03/2022,08:32:56,0.192,0.0,0.141,0.003
19/03/2022,08:33:56,0.196,0.0,0.144,0.003
19/03/2022,08:34:56,0.199,0.0,0.147,0.003
19/03/2022,08:35:56,0.202,0.0,0.151,0.004
19/03/2022,08:36:56,0.205,0.0,0.154,0.003
19/03/2022,08:37:55,0.209,0.0,0.157,0.003
19/03/2022,08:38:56,0.212,0.0,0.161,0.004
19/03/2022,08:39:56,0.215,0.0,0.164,0.003
19/03/2022,08:40:56,0.218,1.0,0.168,0.004
19/03/2022,08:41:56,0.222,1.0,0.172,0.004
19/03/2022,08:43:04,0.227,1.0,0.176,0.004
19/03/2022,08:44:04,0.230,1.0,0.18,0.004
19/03/2022,08:44:55,0.233,1.0,0.183,0.003
19/03/2022,08:45:56,0.236,1.0,0.187,0.004
19/03/2022,08:46:56,0.240,1.0,0.191,0.004
19/03/2022,08:47:55,0.244,1.0,0.195,0.004
19/03/2022,08:48:56,0.247,1.0,0.199,0.004
19/03/2022,08:49:55,0.251,1.0,0.203,0.004
19/03/2022,08:50:56,0.254,1.0,0.208,0.005
19/03/2022,08:51:56,0.259,1.0,0.212,0.004
19/03/2022,08:52:56,0.262,1.0,0.216,0.004
19/03/2022,08:54:04,0.266,1.0,0.221,0.005
19/03/2022,08:54:56,0.269,1.0,0.225,0.004
19/03/2022,08:55:56,0.273,1.0,0.229,0.004
19/03/2022,08:56:56,0.276,1.0,0.234,0.005
19/03/2022,08:57:56,0.280,1.0,0.239,0.005
19/03/2022,08:58:56,0.283,1.0,0.243,0.004
19/03/2022,08:59:56,0.288,1.0,0.248,0.005
19/03/2022,09:00:56,0.292,1.0,0.253,0.005
19/03/2022,09:01:56,0.296,1.0,0.258,0.005
19/03/2022,09:02:56,0.301,1.0,0.263,0.005
19/03/2022,09:03:56,0.303,1.0,0.268,0.005
19/03/2022,09:04:56,0.306,1.0,0.273,0.005
19/03/2022,09:05:55,0.310,1.0,0.278,0.005
19/03/2022,09:07:04,0.315,1.0,0.284,0.006
19/03/2022,09:07:56,0.320,1.0,0.289,0.005
19/03/2022,09:08:56,0.323,1.0,0.294,0.005
19/03/2022,09:09:56,0.327,1.0,0.299,0.005
19/03/2022,09:11:56,0.335,1.0,0.31,0.011
19/03/2022,09:12:56,0.339,1.0,0.316,0.006
19/03/2022,09:13:56,0.342,1.0,0.322,0.006
19/03/2022,09:14:55,0.347,1.0,0.327,0.005
19/03/2022,09:15:56,0.352,1.0,0.333,0.006
19/03/2022,09:17:05,0.357,1.0,0.34,0.007
19/03/2022,09:17:54,0.361,1.0,0.345,0.005
19/03/2022,09:18:56,0.363,1.0,0.351,0.006
19/03/2022,09:20:04,0.368,1.0,0.358,0.007
19/03/2022,09:20:56,0.371,1.0,0.363,0.005
19/03/2022,09:21:56,0.377,1.0,0.37,0.007
19/03/2022,09:22:56,0.380,1.0,0.376,0.006
19/03/2022,09:23:56,0.383,1.0,0.382,0.006
19/03/2022,09:24:56,0.389,1.0,0.389,0.007
19/03/2022,09:25:56,0.394,1.0,0.395,0.006
19/03/2022,09:26:56,0.398,1.0,0.402,0.007
19/03/2022,09:27:56,0.402,1.0,0.409,0.007
19/03/2022,09:28:55,0.406,1.0,0.415,0.006
19/03/2022,09:29:55,0.409,1.0,0.422,0.007
19/03/2022,09:30:56,0.415,1.0,0.429,0.007
19/03/2022,09:31:56,0.421,1.0,0.436,0.007
19/03/2022,09:32:56,0.422,1.0,0.443,0.007
19/03/2022,09:33:55,0.426,1.0,0.45,0.007
19/03/2022,09:34:56,0.431,1.0,0.457,0.007
19/03/2022,09:36:04,0.437,1.0,0.465,0.008
19/03/2022,09:37:04,0.440,1.0,0.473,0.008
19/03/2022,09:37:56,0.444,1.0,0.479,0.006
19/03/2022,09:38:55,0.449,1.0,0.486,0.007
19/03/2022,09:39:56,0.455,1.0,0.494,0.008
19/03/2022,09:40:56,0.458,1.0,0.502,0.008
19/03/2022,09:41:56,0.465,1.0,0.509,0.007
19/03/2022,09:42:56,0.467,1.0,0.517,0.008
19/03/2022,09:43:56,0.472,1.0,0.525,0.008
19/03/2022,09:44:55,0.476,1.0,0.533,0.008
19/03/2022,09:46:04,0.483,1.0,0.542,0.009
19/03/2022,09:46:49,0.484,1.0,0.548,0.006
19/03/2022,09:47:56,0.490,1.0,0.557,0.009
19/03/2022,09:48:56,0.495,1.0,0.565,0.008
19/03/2022,09:49:56,0.500,1.0,0.573,0.008
19/03/2022,09:50:56,0.503,1.0,0.582,0.009
19/03/2022,09:51:56,0.507,1.0,0.59,0.008
19/03/2022,09:52:56,0.513,1.0,0.599,0.009
19/03/2022,09:53:56,0.516,1.0,0.607,0.008
19/03/2022,09:54:56,0.522,1.0,0.616,0.009
19/03/2022,09:55:55,0.526,1.0,0.625,0.009
19/03/2022,09:56:56,0.531,1.0,0.633,0.008
19/03/2022,09:57:56,0.535,1.0,0.642,0.009
19/03/2022,09:59:05,0.540,1.0,0.652,0.01
19/03/2022,10:00:03,0.545,1.0,0.661,0.009
19/03/2022,10:00:56,0.548,1.0,0.669,0.008
19/03/2022,10:01:56,0.554,1.0,0.679,0.01
19/03/2022,10:02:57,0.555,1.0,0.688,0.009
19/03/2022,10:03:56,0.561,1.0,0.697,0.009
19/03/2022,10:04:56,0.564,1.0,0.706,0.009
19/03/2022,10:05:56,0.571,1.0,0.716,0.01
19/03/2022,10:06:56,0.577,1.0,0.726,0.01
19/03/2022,10:07:56,0.579,1.0,0.735,0.009
19/03/2022,10:08:55,0.582,1.0,0.745,0.01
19/03/2022,10:09:58,0.587,1.0,0.755,0.01
19/03/2022,10:10:56,0.593,1.0,0.764,0.009
19/03/2022,10:11:56,0.596,1.0,0.774,0.01
19/03/2022,10:13:05,0.603,1.0,0.786,0.012
19/03/2022,10:13:41,0.606,1.0,0.792,0.006
19/03/2022,10:14:57,0.608,1.0,0.805,0.013
19/03/2022,10:15:56,0.614,1.0,0.815,0.01
19/03/2022,10:16:56,0.619,1.0,0.825,0.01
19/03/2022,10:17:56,0.622,1.0,0.835,0.01